Location: Shannon
(40.5500°S, 175.4167°E)
Time: 20:37:19
(UTC+00:00)

Cosmos 494 Rocket - Pass Details

Date: 17 November 2025
Orbit: 737 x 766 km, 74.1° (Epoch: 14 December)

Event Time Altitude Azimuth Distance (km) Brightness Sun altitude
Exits shadow 14:26:59 46° 352° (N) 1,024 4.2 -21.6°
Maximum altitude 14:28:35 82° 72° (ENE) 780 4.0 -21.4°
Drops below altitude 10° 14:33:51 10° 159° (SSE) 2,310 7.5 -20.8°
Sets 14:36:13 0° 159° (SSE) 3,237 8.6 -20.5°
